This is the latest recevied weather packets stored in our database for station/object SV2ASS-2. If no packets are shown the sender has not sent any weather packets the latest 1 day(s).
| Time | Temp. | Humidity | Pressure | Rain* | Wind** | Luminosity | Snow |
|---|---|---|---|---|---|---|---|
| 1777795965 | 12.78° C | 37% | 1022.1 hPa | - | - | - | - |
| 1777795065 | 12.22° C | 38% | 1022 hPa | - | - | - | - |
| 1777794165 | 11.67° C | 37% | 1021.8 hPa | - | - | - | - |
| 1777793265 | 11.11° C | 41% | 1022.1 hPa | - | - | - | - |
| 1777792364 | 10.56° C | 54% | 1022 hPa | - | - | - | - |
| 1777791464 | 9.44° C | 59% | 1022 hPa | - | - | - | - |
| 1777790564 | 8.89° C | 60% | 1022.1 hPa | - | - | - | - |
| 1777789664 | 8.89° C | 62% | 1022.3 hPa | - | - | - | - |
| 1777788764 | 8.89° C | 63% | 1022.4 hPa | - | - | - | - |
| 1777787864 | 8.89° C | 64% | 1022.1 hPa | - | - | - | - |
| 1777786964 | 8.33° C | 64% | 1021.9 hPa | - | - | - | - |
| 1777786064 | 8.33° C | 63% | 1021.9 hPa | - | - | - | - |
| 1777785164 | 8.33° C | 65% | 1021.6 hPa | - | - | - | - |
| 1777784264 | 8.33° C | 67% | 1021.4 hPa | - | - | - | - |
| 1777783364 | 7.22° C | 69% | 1021.3 hPa | - | - | - | - |
| 1777782464 | 7.22° C | 68% | 1021.2 hPa | - | - | - | - |
| 1777781564 | 7.22° C | 67% | 1021 hPa | - | - | - | - |
| 1777780663 | 7.22° C | 65% | 1020.8 hPa | - | - | - | - |
| 1777779763 | 7.22° C | 66% | 1020.8 hPa | - | - | - | - |
| 1777778863 | 6.67° C | 64% | 1020.5 hPa | - | - | - | - |
| 1777777963 | 6.67° C | 65% | 1020.4 hPa | - | - | - | - |
* Rain since midnight (hover to see other rain measurements)
** Current wind speed in m/s (hover to see current wind gust speed)